Вернуться в каталог

STARLINK-30150

АктивенСвязьVLEO
NORAD 57621·PAYLOAD·🇺🇸 United States

Запущен Aug 11, 2023 с Cape Canaveral Space Force Station

Loading…

Ближайшие Пролёты (ближайшие 24 часа)

TLE

СвежийSource: CelesTrak SupGP

Эпоха: Sep 15, 2026, 02:05 UTC

1 57621C 23119V   26258.08729167  .00030009  00000+0  10871-2 0  2588
2 57621  43.0007  91.8099 0001862 278.5692  98.6462 15.27557991    16

Отслеживайте STARLINK-30150 в реальном времени с AllMySat

Download on the App Store